Time,TemperatureF,DewpointF,PressureIn,WindDirection,WindDirectionDegrees,WindSpeedMPH,WindSpeedGustMPH,Humidity,HourlyPrecipIn,Conditions,Clouds,dailyrainin,SoftwareType,DateUTC
2013-03-10 00:04:00,50.5,18.0,30.06,SSE,148,4.0,-999.0,28,-99.99,,,0.00,weatherlink.com 1.10,2013-03-10 05:04:00,
2013-03-10 00:19:00,50.5,17.0,30.06,SSE,165,1.0,-999.0,27,-99.99,,,0.00,weatherlink.com 1.10,2013-03-10 05:19:00,
2013-03-10 00:34:00,49.6,18.0,30.06,SE,130,6.0,-999.0,28,-99.99,,,0.00,weatherlink.com 1.10,2013-03-10 05:34:00,
2013-03-10 00:49:00,49.9,18.0,30.05,SSE,168,5.0,-999.0,28,-99.99,,,0.00,weatherlink.com 1.10,2013-03-10 05:49:00,
2013-03-10 01:04:00,50.7,18.0,30.04,South,169,5.0,-999.0,27,-99.99,,,0.00,weatherlink.com 1.10,2013-03-10 06:04:00,
2013-03-10 01:19:00,50.8,17.0,30.04,ESE,103,7.0,-999.0,26,-99.99,,,0.00,weatherlink.com 1.10,2013-03-10 06:19:00,
2013-03-10 01:34:00,50.7,18.0,30.04,SSE,157,6.0,-999.0,27,-99.99,,,0.00,weatherlink.com 1.10,2013-03-10 06:34:00,
2013-03-10 01:49:00,49.9,18.0,30.04,SE,141,1.0,-999.0,28,-99.99,,,0.00,weatherlink.com 1.10,2013-03-10 06:49:00,
2013-03-10 03:04:00,49.6,18.0,30.04,ESE,116,0.0,-999.0,28,-99.99,,,0.00,weatherlink.com 1.10,2013-03-10 07:04:00,
2013-03-10 03:19:00,49.8,18.0,30.03,ESE,107,7.0,-999.0,28,-99.99,,,0.00,weatherlink.com 1.10,2013-03-10 07:19:00,
2013-03-10 03:34:00,50.2,18.0,30.03,SE,130,2.0,-999.0,28,-99.99,,,0.00,weatherlink.com 1.10,2013-03-10 07:34:00,
2013-03-10 03:49:00,49.8,19.0,30.02,SE,126,2.0,-999.0,30,-99.99,,,0.00,weatherlink.com 1.10,2013-03-10 07:49:00,
2013-03-10 04:04:00,50.4,18.0,30.01,SSE,154,5.0,-999.0,28,-99.99,,,0.00,weatherlink.com 1.10,2013-03-10 08:04:00,
2013-03-10 04:19:00,50.4,18.0,30.00,East,93,6.0,-999.0,28,-99.99,,,0.00,weatherlink.com 1.10,2013-03-10 08:19:00,
2013-03-10 04:34:00,50.1,20.0,30.00,ESE,117,3.0,-999.0,31,-99.99,,,0.00,weatherlink.com 1.10,2013-03-10 08:34:00,
2013-03-10 04:49:00,50.8,18.0,29.99,East,97,2.0,-999.0,27,-99.99,,,0.00,weatherlink.com 1.10,2013-03-10 08:49:00,
2013-03-10 05:04:00,50.8,19.0,29.99,ESE,123,4.0,-999.0,28,-99.99,,,0.00,weatherlink.com 1.10,2013-03-10 09:04:00,
2013-03-10 05:19:00,50.7,18.0,30.00,ESE,104,1.0,-999.0,27,-99.99,,,0.00,weatherlink.com 1.10,2013-03-10 09:19:00,
2013-03-10 05:34:00,50.4,18.0,30.00,ENE,66,6.0,-999.0,28,-99.99,,,0.00,weatherlink.com 1.10,2013-03-10 09:34:00,
2013-03-10 05:49:00,50.8,19.0,30.00,SSE,150,0.0,-999.0,28,-99.99,,,0.00,weatherlink.com 1.10,2013-03-10 09:49:00,
2013-03-10 06:04:00,51.4,19.0,30.01,SE,145,7.0,-999.0,28,-99.99,,,0.00,weatherlink.com 1.10,2013-03-10 10:04:00,
2013-03-10 06:19:00,52.3,19.0,30.01,ESE,117,2.0,-999.0,27,-99.99,,,0.00,weatherlink.com 1.10,2013-03-10 10:19:00,
2013-03-10 06:34:00,52.2,20.0,30.01,ESE,114,1.0,-999.0,28,-99.99,,,0.00,weatherlink.com 1.10,2013-03-10 10:34:00,
2013-03-10 06:49:00,52.3,21.0,30.01,ENE,69,1.0,-999.0,29,-99.99,,,0.00,weatherlink.com 1.10,2013-03-10 10:49:00,
2013-03-10 07:04:00,52.0,21.0,30.01,East,85,1.0,-999.0,30,-99.99,,,0.00,weatherlink.com 1.10,2013-03-10 11:04:00,
2013-03-10 07:19:00,52.2,21.0,30.01,SSE,155,5.0,-999.0,29,-99.99,,,0.00,weatherlink.com 1.10,2013-03-10 11:19:00,
2013-03-10 07:34:00,50.8,21.0,30.02,SE,131,1.0,-999.0,31,-99.99,,,0.00,weatherlink.com 1.10,2013-03-10 11:34:00,
2013-03-10 07:49:00,50.8,19.0,30.02,East,96,6.0,-999.0,29,-99.99,,,0.00,weatherlink.com 1.10,2013-03-10 11:49:00,
2013-03-10 08:04:00,50.5,21.0,30.02,East,96,8.0,-999.0,32,-99.99,,,0.00,weatherlink.com 1.10,2013-03-10 12:04:00,
2013-03-10 08:19:00,50.1,22.0,30.03,SE,141,12.0,-999.0,33,-99.99,,,0.00,weatherlink.com 1.10,2013-03-10 12:19:00,
2013-03-10 08:34:00,51.3,21.0,30.03,East,89,1.0,-999.0,31,-99.99,,,0.00,weatherlink.com 1.10,2013-03-10 12:34:00,
2013-03-10 08:49:00,52.3,22.0,30.03,SE,124,0.0,-999.0,30,-99.99,,,0.00,weatherlink.com 1.10,2013-03-10 12:49:00,
2013-03-10 09:04:00,50.8,22.0,30.05,NW,320,0.0,-999.0,32,-99.99,,,0.00,weatherlink.com 1.10,2013-03-10 13:04:00,
2013-03-10 09:19:00,51.6,22.0,30.05,SE,126,5.0,-999.0,32,-99.99,,,0.00,weatherlink.com 1.10,2013-03-10 13:19:00,
2013-03-10 09:35:00,53.3,21.0,30.04,ESE,123,0.0,-999.0,28,-99.99,,,0.00,weatherlink.com 1.10,2013-03-10 13:35:00,
2013-03-10 09:50:00,54.4,22.0,30.04,SSW,203,2.0,-999.0,28,-99.99,,,0.00,weatherlink.com 1.10,2013-03-10 13:50:00,
2013-03-10 10:05:00,55.7,21.0,30.03,ESE,104,2.0,-999.0,26,-99.99,,,0.00,weatherlink.com 1.10,2013-03-10 14:05:00,
2013-03-10 10:20:00,54.8,21.0,30.05,SSE,161,1.0,-999.0,27,-99.99,,,0.00,weatherlink.com 1.10,2013-03-10 14:20:00,
2013-03-10 10:35:00,54.4,21.0,30.05,SSE,168,2.0,-999.0,27,-99.99,,,0.00,weatherlink.com 1.10,2013-03-10 14:35:00,
2013-03-10 10:50:00,56.0,20.0,30.05,SSE,165,3.0,-999.0,25,-99.99,,,0.00,weatherlink.com 1.10,2013-03-10 14:50:00,
2013-03-10 11:05:00,59.0,22.0,30.05,SSE,151,0.0,-999.0,24,-99.99,,,0.00,weatherlink.com 1.10,2013-03-10 15:05:00,
2013-03-10 11:20:00,61.2,22.0,30.04,SSW,209,3.0,-999.0,22,-99.99,,,0.00,weatherlink.com 1.10,2013-03-10 15:20:00,
2013-03-10 11:35:00,62.0,21.0,30.04,SE,137,4.0,-999.0,21,-99.99,,,0.00,weatherlink.com 1.10,2013-03-10 15:35:00,
2013-03-10 11:50:00,63.4,24.0,30.03,South,181,6.0,-999.0,22,-99.99,,,0.00,weatherlink.com 1.10,2013-03-10 15:50:00,
2013-03-10 12:05:00,63.1,23.0,30.03,West,265,3.0,-999.0,22,-99.99,,,0.00,weatherlink.com 1.10,2013-03-10 16:05:00,
2013-03-10 12:20:00,63.9,24.0,30.03,SSE,168,0.0,-999.0,22,-99.99,,,0.00,weatherlink.com 1.10,2013-03-10 16:20:00,
2013-03-10 12:35:00,64.7,24.0,30.03,SSE,160,0.0,-999.0,21,-99.99,,,0.00,weatherlink.com 1.10,2013-03-10 16:35:00,
2013-03-10 12:50:00,66.1,26.0,30.02,South,191,0.0,-999.0,22,-99.99,,,0.00,weatherlink.com 1.10,2013-03-10 16:50:00,
2013-03-10 13:05:00,66.8,24.0,30.02,South,178,0.0,-999.0,20,-99.99,,,0.00,weatherlink.com 1.10,2013-03-10 17:05:00,
2013-03-10 13:20:00,66.3,25.0,30.01,SW,234,0.0,-999.0,21,-99.99,,,0.00,weatherlink.com 1.10,2013-03-10 17:20:00,
2013-03-10 13:35:00,67.1,25.0,29.99,SW,219,0.0,-999.0,20,-99.99,,,0.00,weatherlink.com 1.10,2013-03-10 17:35:00,
2013-03-10 13:50:00,67.6,26.0,29.98,SW,216,0.0,-999.0,21,-99.99,,,0.00,weatherlink.com 1.10,2013-03-10 17:50:00,
2013-03-10 14:05:00,67.4,26.0,29.98,ESE,116,0.0,-999.0,21,-99.99,,,0.00,weatherlink.com 1.10,2013-03-10 18:05:00,
2013-03-10 14:20:00,68.1,28.0,29.97,ESE,120,0.0,-999.0,22,-99.99,,,0.00,weatherlink.com 1.10,2013-03-10 18:20:00,
2013-03-10 14:35:00,68.1,29.0,29.96,SSE,150,0.0,-999.0,23,-99.99,,,0.00,weatherlink.com 1.10,2013-03-10 18:35:00,
2013-03-10 14:50:00,68.4,28.0,29.95,SSE,147,0.0,-999.0,22,-99.99,,,0.00,weatherlink.com 1.10,2013-03-10 18:50:00,
2013-03-10 15:05:00,68.9,26.0,29.95,East,86,0.0,-999.0,20,-99.99,,,0.00,weatherlink.com 1.10,2013-03-10 19:05:00,
2013-03-10 15:20:00,69.6,27.0,29.94,SE,137,0.0,-999.0,20,-99.99,,,0.00,weatherlink.com 1.10,2013-03-10 19:20:00,
2013-03-10 15:35:00,70.3,27.0,29.93,SE,138,4.0,-999.0,20,-99.99,,,0.00,weatherlink.com 1.10,2013-03-10 19:35:00,
2013-03-10 15:50:00,69.6,27.0,29.93,SE,143,10.0,-999.0,20,-99.99,,,0.00,weatherlink.com 1.10,2013-03-10 19:50:00,
2013-03-10 16:20:00,69.3,28.0,29.92,SSE,161,5.0,-999.0,21,-99.99,,,0.00,weatherlink.com 1.10,2013-03-10 20:20:00,
2013-03-10 16:35:00,69.9,27.0,29.92,SSE,147,0.0,-999.0,20,-99.99,,,0.00,weatherlink.com 1.10,2013-03-10 20:35:00,
2013-03-10 16:50:00,69.8,27.0,29.91,SE,133,1.0,-999.0,20,-99.99,,,0.00,weatherlink.com 1.10,2013-03-10 20:50:00,
2013-03-10 17:06:00,69.6,25.0,29.92,SSE,152,0.0,-999.0,19,-99.99,,,0.00,weatherlink.com 1.10,2013-03-10 21:06:00,
2013-03-10 17:21:00,67.9,26.0,29.91,SSE,152,6.0,-999.0,21,-99.99,,,0.00,weatherlink.com 1.10,2013-03-10 21:21:00,
2013-03-10 17:36:00,66.4,26.0,29.90,ESE,103,8.0,-999.0,22,-99.99,,,0.00,weatherlink.com 1.10,2013-03-10 21:36:00,
2013-03-10 18:06:00,64.3,27.0,29.88,SE,144,5.0,-999.0,24,-99.99,,,0.00,weatherlink.com 1.10,2013-03-10 22:06:00,
2013-03-10 18:21:00,63.2,27.0,29.87,SE,134,6.0,-999.0,25,-99.99,,,0.00,weatherlink.com 1.10,2013-03-10 22:21:00,
2013-03-10 18:51:00,63.1,27.0,29.90,SE,141,10.0,-999.0,25,-99.99,,,0.00,weatherlink.com 1.10,2013-03-10 22:51:00,
2013-03-10 19:06:00,62.3,26.0,29.91,ESE,110,14.0,-999.0,25,-99.99,,,0.00,weatherlink.com 1.10,2013-03-10 23:06:00,
2013-03-10 19:21:00,61.6,26.0,29.91,ESE,113,5.0,-999.0,26,-99.99,,,0.00,weatherlink.com 1.10,2013-03-10 23:21:00,
2013-03-10 19:36:00,60.4,27.0,29.90,SSE,160,8.0,-999.0,28,-99.99,,,0.00,weatherlink.com 1.10,2013-03-10 23:36:00,
2013-03-10 19:51:00,60.1,26.0,29.91,SSE,155,8.0,-999.0,27,-99.99,,,0.00,weatherlink.com 1.10,2013-03-10 23:51:00,
2013-03-10 20:21:00,59.0,26.0,29.91,SSE,151,7.0,-999.0,28,-99.99,,,0.00,weatherlink.com 1.10,2013-03-11 00:21:00,
2013-03-10 20:36:00,58.6,26.0,29.92,SSE,147,7.0,-999.0,29,-99.99,,,0.00,weatherlink.com 1.10,2013-03-11 00:36:00,
2013-03-10 20:51:00,58.4,26.0,29.91,SSE,150,7.0,-999.0,29,-99.99,,,0.00,weatherlink.com 1.10,2013-03-11 00:51:00,
2013-03-10 21:21:00,57.6,26.0,29.88,SSE,147,5.0,-999.0,30,-99.99,,,0.00,weatherlink.com 1.10,2013-03-11 01:21:00,
2013-03-10 21:51:00,56.9,26.0,29.89,SE,136,0.0,-999.0,31,-99.99,,,0.00,weatherlink.com 1.10,2013-03-11 01:51:00,
2013-03-10 22:06:00,56.7,26.0,29.90,SE,144,7.0,-999.0,31,-99.99,,,0.00,weatherlink.com 1.10,2013-03-11 02:06:00,
2013-03-10 22:21:00,56.6,26.0,29.90,South,172,14.0,-999.0,31,-99.99,,,0.00,weatherlink.com 1.10,2013-03-11 02:21:00,
2013-03-10 22:36:00,57.0,26.0,29.88,SE,140,5.0,-999.0,30,-99.99,,,0.00,weatherlink.com 1.10,2013-03-11 02:36:00,
2013-03-10 23:06:00,57.6,25.0,29.86,ESE,114,1.0,-999.0,29,-99.99,,,0.00,weatherlink.com 1.10,2013-03-11 03:06:00,
2013-03-10 23:21:00,56.9,26.0,29.87,SSE,161,6.0,-999.0,30,-99.99,,,0.00,weatherlink.com 1.10,2013-03-11 03:21:00,